Lincoln, NE

4:57 AM CST on December 03, 2016 (GMT -0600)
Lincoln Municipal

Weather History for KLNK - January, 2013

Change the Weather History Date:

Wednesday, January 30, 2013

  Actual Average Record
Temperature  
Mean Temperature 18 °F 25 °F  
Max Temperature 30 °F 36 °F 70 °F (2012)
Min Temperature 6 °F 14 °F -16 °F (1918)
Degree Days  
Heating Degree Days 47 40  
Month to date heating degree days 1171 1216  
Since 1 July heating degree days 3599 3661  
Cooling Degree Days 0 0  
Month to date cooling degree days 0 0  
Year to date cooling degree days 0 0  
Moisture  
Dew Point 16 °F    
Average Humidity 79    
Maximum Humidity 96    
Minimum Humidity 62    
Precipitation  
Precipitation 0.14 in 0.02 in 0.34 in (1938)
Month to date precipitation 0.73 0.61  
Year to date precipitation 0.73 0.61  
Snow  
Snow 3.00 in 0.20 in - ()
Month to date snowfall 6.2 5.2  
Since 1 July snowfall 11.3 13.9  
Snow Depth 5.00 in    
Sea Level Pressure  
Sea Level Pressure 29.84 in    
Wind  
Wind Speed 16 mph (NNW)    
Max Wind Speed 35 mph    
Max Gust Speed 39 mph    
Visibility 4 miles    
Events Fog , Snow    
T = Trace of Precipitation, MM = Missing Value Source: NWS Daily Summary

Daily Weather History Graph

Daily Weather History Graph

Search for Another Location

Airport or City:

Trip Planner

Search our weather history database for the weather conditions in past years. The results will help you decide how hot, cold, wet, or windy it might be!

Date:

Astronomy

Jan. 30, 2013 Rise Set
Actual Time 7:38 AM CST 5:42 PM CST
Civil Twilight 7:09 AM CST 6:11 PM CST
Nautical Twilight 6:36 AM CST 6:44 PM CST
Astronomical Twilight 6:04 AM CST 7:16 PM CST
Moon 9:44 PM CST (1/30) 9:05 AM CST (1/30)
Length of Visible Light 11h 01m
Length of Day
10h 03m
Waning Gibbous, 87% of the Moon is Illuminated
Jan 30
Waning Gibbous
Feb 3
Last Quarter
Feb 10
New
Feb 17
First Quarter
Feb 25
Full

Hourly Weather History & Observations

Time (CST) Temp. Windchill Dew Point Humidity Pressure Visibility Wind Dir Wind Speed Gust Speed Precip Events Conditions
12:26 AM 30.2 °F 16.8 °F 28.4 °F 93% 29.69 in 0.2 mi NNW 23.0 mph - 0.02 in Fog , Snow Heavy Snow
12:34 AM 28.4 °F 14.4 °F 28.4 °F 100% 29.68 in 0.2 mi North 23.0 mph - 0.03 in Fog , Snow Heavy Snow
12:43 AM 28.4 °F 14.7 °F 28.4 °F 100% 29.68 in 0.5 mi NNW 21.9 mph 28.8 mph 0.04 in Fog , Snow Snow
12:54 AM 28.9 °F 15.4 °F 27.0 °F 92% 29.70 in 0.5 mi NNW 21.9 mph - 0.05 in Fog , Snow Snow
1:54 AM 26.1 °F 11.0 °F 24.1 °F 92% 29.74 in 0.5 mi NNW 24.2 mph 34.5 mph 0.01 in Fog , Snow Snow
2:04 AM 26.6 °F 10.6 °F 23.0 °F 86% 29.70 in 0.5 mi North 28.8 mph 35.7 mph 0.00 in Fog , Snow Snow
2:17 AM 24.8 °F 9.6 °F 23.0 °F 93% 29.71 in 0.8 mi NNW 23.0 mph 31.1 mph 0.01 in Snow Light Snow
2:25 AM 24.8 °F 9.6 °F 21.2 °F 86% 29.72 in 1.0 mi North 23.0 mph 31.1 mph 0.01 in Snow Light Snow
2:32 AM 24.8 °F 10.3 °F 21.2 °F 86% 29.73 in 1.0 mi NNW 20.7 mph 28.8 mph 0.02 in Snow Light Snow
2:49 AM 24.8 °F 9.0 °F 21.2 °F 86% 29.73 in 0.8 mi North 25.3 mph 32.2 mph 0.02 in Snow Light Snow
2:54 AM 24.1 °F 8.3 °F 21.0 °F 88% 29.78 in 0.8 mi NNW 24.2 mph 32.2 mph 0.02 in Snow Light Snow
3:15 AM 24.8 °F 10.0 °F 21.2 °F 86% 29.75 in 0.8 mi NNW 21.9 mph 29.9 mph 0.01 in Snow Light Snow
3:28 AM 24.8 °F 10.7 °F 21.2 °F 86% 29.75 in 1.0 mi NNW 19.6 mph - 0.01 in Snow Light Snow
3:54 AM 23.0 °F 7.6 °F 21.0 °F 92% 29.79 in 1.0 mi NNW 21.9 mph 33.4 mph 0.01 in Snow Light Snow
4:23 AM 23.0 °F 6.9 °F 19.4 °F 86% 29.76 in 1.0 mi NNW 24.2 mph 31.1 mph 0.00 in Snow Light Snow
4:54 AM 23.0 °F 6.0 °F 19.9 °F 88% 29.79 in 1.0 mi NNW 27.6 mph 35.7 mph 0.00 in Snow Light Snow
5:50 AM 21.2 °F 4.5 °F 17.6 °F 86% 29.77 in 2.0 mi NNW 24.2 mph 33.4 mph 0.00 in Snow Light Snow
5:54 AM 21.9 °F 4.8 °F 18.0 °F 85% 29.82 in 1.8 mi NNW 26.5 mph 35.7 mph 0.00 in Snow Light Snow
6:25 AM 21.2 °F 5.2 °F 17.6 °F 86% 29.78 in 3.0 mi NNW 21.9 mph 33.4 mph 0.00 in Snow Blowing Snow
6:34 AM 21.2 °F 2.7 °F 17.6 °F 86% 29.78 in 1.8 mi North 31.1 mph 38.0 mph 0.00 in Snow Blowing Snow
6:47 AM 21.2 °F 4.2 °F 17.6 °F 86% 29.79 in 2.0 mi NNW 25.3 mph 36.8 mph 0.00 in Snow Blowing Snow
6:54 AM 21.9 °F 5.1 °F 17.1 °F 82% 29.84 in 2.5 mi NNW 25.3 mph 36.8 mph 0.00 in Snow Blowing Snow
7:38 AM 21.2 °F 4.2 °F 15.8 °F 80% 29.82 in 3.0 mi NNW 25.3 mph 35.7 mph 0.00 in Snow Blowing Snow
7:46 AM 21.2 °F 3.3 °F 15.8 °F 80% 29.82 in 1.8 mi NNW 28.8 mph 35.7 mph 0.00 in Snow Light Snow
7:54 AM 21.0 °F 3.3 °F 15.1 °F 78% 29.87 in 1.0 mi NNW 27.6 mph 39.1 mph 0.00 in Snow Blowing Snow
8:03 AM 21.2 °F 4.2 °F 15.8 °F 80% 29.83 in 1.8 mi NNW 25.3 mph 35.7 mph N/A Snow Blowing Snow
8:10 AM 21.2 °F 4.2 °F 14.0 °F 74% 29.83 in 2.5 mi NNW 25.3 mph 33.4 mph N/A Snow Blowing Snow
8:20 AM 21.2 °F 4.9 °F 15.8 °F 80% 29.84 in 5.0 mi NNW 23.0 mph 29.9 mph N/A   Overcast
8:40 AM 21.2 °F 6.0 °F 15.8 °F 80% 29.85 in 5.0 mi NNW 19.6 mph 25.3 mph N/A   Overcast
8:54 AM 21.9 °F 6.5 °F 15.1 °F 75% 29.89 in 4.0 mi NNW 20.7 mph - 0.00 in Snow Light Snow
9:20 AM 21.2 °F 6.4 °F 15.8 °F 80% 29.85 in 2.5 mi NNW 18.4 mph 23.0 mph 0.00 in Snow Light Snow
9:39 AM 21.2 °F 4.2 °F 14.0 °F 74% 29.86 in 1.0 mi NNW 25.3 mph 34.5 mph 0.00 in Snow Light Snow
9:54 AM 21.0 °F 3.9 °F 12.9 °F 71% 29.90 in 2.0 mi NNW 25.3 mph 36.8 mph 0.00 in   Overcast
10:08 AM 21.2 °F 6.0 °F 15.8 °F 80% 29.86 in 4.0 mi NNW 19.6 mph 32.2 mph N/A Snow Blowing Snow
10:33 AM 21.2 °F 4.9 °F 14.0 °F 74% 29.88 in 3.0 mi NNW 23.0 mph 32.2 mph 0.00 in Snow Light Snow
10:45 AM 21.2 °F 6.0 °F 14.0 °F 74% 29.88 in 4.0 mi NNW 19.6 mph 31.1 mph 0.00 in   Overcast
10:54 AM 21.9 °F 5.8 °F 14.0 °F 72% 29.93 in 6.0 mi NNW 23.0 mph 29.9 mph 0.00 in   Overcast
11:54 AM 23.0 °F 9.2 °F 12.9 °F 65% 29.93 in 9.0 mi NNW 17.3 mph - 0.00 in   Overcast
12:54 PM 23.0 °F 8.3 °F 12.9 °F 65% 29.93 in 9.0 mi NNW 19.6 mph - 0.00 in   Overcast
1:54 PM 21.9 °F 6.2 °F 12.0 °F 66% 29.92 in 10.0 mi NNW 21.9 mph 26.5 mph N/A   Overcast
2:54 PM 21.9 °F 7.8 °F 12.0 °F 66% 29.92 in 10.0 mi NNW 17.3 mph - 0.00 in   Overcast
3:45 PM 21.2 °F 10.1 °F 12.2 °F 68% 29.88 in 10.0 mi NW 10.4 mph 19.6 mph N/A   Overcast
3:54 PM 21.9 °F 9.2 °F 10.9 °F 63% 29.94 in 10.0 mi NW 13.8 mph - N/A   Overcast
4:51 PM 21.2 °F 11.7 °F 12.2 °F 68% 29.89 in 5.0 mi NW 8.1 mph - N/A   Haze
4:54 PM 21.9 °F 11.7 °F 12.9 °F 68% 29.94 in 8.0 mi NW 9.2 mph - N/A   Overcast
5:54 PM 19.0 °F 11.1 °F 12.0 °F 74% 29.95 in 10.0 mi West 5.8 mph - N/A   Partly Cloudy
6:54 PM 18.0 °F 9.8 °F 10.9 °F 74% 29.95 in 10.0 mi WSW 5.8 mph - N/A   Clear
7:54 PM 12.9 °F 6.9 °F 9.0 °F 84% 29.96 in 10.0 mi SW 3.5 mph - N/A   Clear
8:54 PM 9.0 °F 2.4 °F 7.0 °F 92% 29.97 in 10.0 mi NNE 3.5 mph - N/A   Clear
9:54 PM 8.1 °F - 6.1 °F 92% 29.98 in 10.0 mi Calm Calm - N/A   Clear
10:54 PM 10.0 °F - 6.1 °F 84% 30.01 in 9.0 mi Calm Calm - N/A   Overcast
11:54 PM 12.0 °F - 9.0 °F 88% 30.01 in 10.0 mi Calm Calm - N/A   Overcast